Location: Altoona
(40.5167°N, 78.4000°W)
Time: 18:18:50
(UTC-04:00)

Nadezhda 1 Rocket - Pass Details

Date: 21 August 2017
Orbit: 942 x 1005 km, 83.0° (Epoch: 21 September)

Event Time Altitude Azimuth Distance (km) Brightness Sun altitude
Rises 22:43:52 0° 353° (N) 3,698 7.8 -26.9°
Reaches altitude 10° 22:46:23 10° 355° (N) 2,754 7.0 -27.3°
Maximum altitude 22:52:44 81° 82° (E) 1,012 3.9 -28.1°
Enters shadow 22:53:10 76° 134° (SE) 1,028 3.8 -28.1°
